Index of /20260502/WXO-DD/model_rdps/10km/12/072
Name Last modified Size Description
Parent Directory -
20260502T12Z_MSC_RDPS_AbsoluteVorticity_IsbL-0250_RLatLon0.09_PT072H.grib2 2026-05-02 15:00 610K
20260502T12Z_MSC_RDPS_AbsoluteVorticity_IsbL-0500_RLatLon0.09_PT072H.grib2 2026-05-02 15:00 567K
20260502T12Z_MSC_RDPS_AbsoluteVorticity_IsbL-0700_RLatLon0.09_PT072H.grib2 2026-05-02 15:00 636K
20260502T12Z_MSC_RDPS_AbsoluteVorticity_IsbL-0850_RLatLon0.09_PT072H.grib2 2026-05-02 15:00 799K
20260502T12Z_MSC_RDPS_AirTemp_AGL-120m_RLatLon0.09_PT072H.grib2 2026-05-02 15:00 381K
20260502T12Z_MSC_RDPS_AirTemp_AGL-2m_RLatLon0.09_PT072H.grib2 2026-05-02 15:00 629K
20260502T12Z_MSC_RDPS_AirTemp_AGL-40m_RLatLon0.09_PT072H.grib2 2026-05-02 15:00 396K
20260502T12Z_MSC_RDPS_AirTemp_AGL-80m_RLatLon0.09_PT072H.grib2 2026-05-02 15:00 388K
20260502T12Z_MSC_RDPS_AirTemp_IsbL-0001_RLatLon0.09_PT072H.grib2 2026-05-02 15:00 240K
20260502T12Z_MSC_RDPS_AirTemp_IsbL-0005_RLatLon0.09_PT072H.grib2 2026-05-02 15:00 293K
20260502T12Z_MSC_RDPS_AirTemp_IsbL-0010_RLatLon0.09_PT072H.grib2 2026-05-02 15:00 396K
20260502T12Z_MSC_RDPS_AirTemp_IsbL-0020_RLatLon0.09_PT072H.grib2 2026-05-02 15:00 322K
20260502T12Z_MSC_RDPS_AirTemp_IsbL-0030_RLatLon0.09_PT072H.grib2 2026-05-02 15:00 341K
20260502T12Z_MSC_RDPS_AirTemp_IsbL-0050_RLatLon0.09_PT072H.grib2 2026-05-02 15:00 321K
20260502T12Z_MSC_RDPS_AirTemp_IsbL-0100_RLatLon0.09_PT072H.grib2 2026-05-02 15:00 434K
20260502T12Z_MSC_RDPS_AirTemp_IsbL-0150_RLatLon0.09_PT072H.grib2 2026-05-02 15:00 419K
20260502T12Z_MSC_RDPS_AirTemp_IsbL-0175_RLatLon0.09_PT072H.grib2 2026-05-02 15:00 411K
20260502T12Z_MSC_RDPS_AirTemp_IsbL-0200_RLatLon0.09_PT072H.grib2 2026-05-02 15:00 414K
20260502T12Z_MSC_RDPS_AirTemp_IsbL-0225_RLatLon0.09_PT072H.grib2 2026-05-02 15:00 414K
20260502T12Z_MSC_RDPS_AirTemp_IsbL-0250_RLatLon0.09_PT072H.grib2 2026-05-02 15:00 419K
20260502T12Z_MSC_RDPS_AirTemp_IsbL-0275_RLatLon0.09_PT072H.grib2 2026-05-02 15:00 403K
20260502T12Z_MSC_RDPS_AirTemp_IsbL-0300_RLatLon0.09_PT072H.grib2 2026-05-02 15:00 411K
20260502T12Z_MSC_RDPS_AirTemp_IsbL-0350_RLatLon0.09_PT072H.grib2 2026-05-02 15:00 428K
20260502T12Z_MSC_RDPS_AirTemp_IsbL-0400_RLatLon0.09_PT072H.grib2 2026-05-02 15:00 432K
20260502T12Z_MSC_RDPS_AirTemp_IsbL-0450_RLatLon0.09_PT072H.grib2 2026-05-02 15:00 439K
20260502T12Z_MSC_RDPS_AirTemp_IsbL-0500_RLatLon0.09_PT072H.grib2 2026-05-02 15:00 447K
20260502T12Z_MSC_RDPS_AirTemp_IsbL-0550_RLatLon0.09_PT072H.grib2 2026-05-02 15:00 463K
20260502T12Z_MSC_RDPS_AirTemp_IsbL-0600_RLatLon0.09_PT072H.grib2 2026-05-02 15:00 481K
20260502T12Z_MSC_RDPS_AirTemp_IsbL-0650_RLatLon0.09_PT072H.grib2 2026-05-02 15:00 460K
20260502T12Z_MSC_RDPS_AirTemp_IsbL-0700_RLatLon0.09_PT072H.grib2 2026-05-02 15:00 487K
20260502T12Z_MSC_RDPS_AirTemp_IsbL-0750_RLatLon0.09_PT072H.grib2 2026-05-02 15:00 526K
20260502T12Z_MSC_RDPS_AirTemp_IsbL-0800_RLatLon0.09_PT072H.grib2 2026-05-02 15:00 585K
20260502T12Z_MSC_RDPS_AirTemp_IsbL-0850_RLatLon0.09_PT072H.grib2 2026-05-02 15:00 649K
20260502T12Z_MSC_RDPS_AirTemp_IsbL-0875_RLatLon0.09_PT072H.grib2 2026-05-02 15:00 537K
20260502T12Z_MSC_RDPS_AirTemp_IsbL-0900_RLatLon0.09_PT072H.grib2 2026-05-02 15:00 540K
20260502T12Z_MSC_RDPS_AirTemp_IsbL-0925_RLatLon0.09_PT072H.grib2 2026-05-02 15:00 665K
20260502T12Z_MSC_RDPS_AirTemp_IsbL-0950_RLatLon0.09_PT072H.grib2 2026-05-02 15:00 661K
20260502T12Z_MSC_RDPS_AirTemp_IsbL-0970_RLatLon0.09_PT072H.grib2 2026-05-02 15:00 651K
20260502T12Z_MSC_RDPS_AirTemp_IsbL-0985_RLatLon0.09_PT072H.grib2 2026-05-02 15:00 636K
20260502T12Z_MSC_RDPS_AirTemp_IsbL-1000_RLatLon0.09_PT072H.grib2 2026-05-02 15:00 496K
20260502T12Z_MSC_RDPS_AirTemp_IsbL-1015_RLatLon0.09_PT072H.grib2 2026-05-02 15:00 504K
20260502T12Z_MSC_RDPS_Albedo_Sfc_RLatLon0.09_PT072H.grib2 2026-05-02 15:00 151K
20260502T12Z_MSC_RDPS_CAPE_Sfc_RLatLon0.09_PT072H.grib2 2026-05-02 15:00 1.7M
20260502T12Z_MSC_RDPS_CIN_Sfc_RLatLon0.09_PT072H.grib2 2026-05-02 15:00 1.1M
20260502T12Z_MSC_RDPS_CloudWater_EAtm_RLatLon0.09_PT072H.grib2 2026-05-02 15:00 223K
20260502T12Z_MSC_RDPS_ConvectivePrecip-Accum_Sfc_RLatLon0.09_PT072H.grib2 2026-05-02 15:00 1.3M
20260502T12Z_MSC_RDPS_DewPointDepression_AGL-2m_RLatLon0.09_PT072H.grib2 2026-05-02 15:00 404K
20260502T12Z_MSC_RDPS_DewPointDepression_IsbL-0001_RLatLon0.09_PT072H.grib2 2026-05-02 15:00 193
20260502T12Z_MSC_RDPS_DewPointDepression_IsbL-0005_RLatLon0.09_PT072H.grib2 2026-05-02 15:00 193
20260502T12Z_MSC_RDPS_DewPointDepression_IsbL-0010_RLatLon0.09_PT072H.grib2 2026-05-02 15:00 193
20260502T12Z_MSC_RDPS_DewPointDepression_IsbL-0020_RLatLon0.09_PT072H.grib2 2026-05-02 15:00 193
20260502T12Z_MSC_RDPS_DewPointDepression_IsbL-0030_RLatLon0.09_PT072H.grib2 2026-05-02 15:00 193
20260502T12Z_MSC_RDPS_DewPointDepression_IsbL-0050_RLatLon0.09_PT072H.grib2 2026-05-02 15:00 106K
20260502T12Z_MSC_RDPS_DewPointDepression_IsbL-0100_RLatLon0.09_PT072H.grib2 2026-05-02 15:00 117K
20260502T12Z_MSC_RDPS_DewPointDepression_IsbL-0150_RLatLon0.09_PT072H.grib2 2026-05-02 15:00 142K
20260502T12Z_MSC_RDPS_DewPointDepression_IsbL-0175_RLatLon0.09_PT072H.grib2 2026-05-02 15:00 178K
20260502T12Z_MSC_RDPS_DewPointDepression_IsbL-0200_RLatLon0.09_PT072H.grib2 2026-05-02 15:00 216K
20260502T12Z_MSC_RDPS_DewPointDepression_IsbL-0225_RLatLon0.09_PT072H.grib2 2026-05-02 15:00 251K
20260502T12Z_MSC_RDPS_DewPointDepression_IsbL-0250_RLatLon0.09_PT072H.grib2 2026-05-02 15:00 293K
20260502T12Z_MSC_RDPS_DewPointDepression_IsbL-0275_RLatLon0.09_PT072H.grib2 2026-05-02 15:00 304K
20260502T12Z_MSC_RDPS_DewPointDepression_IsbL-0300_RLatLon0.09_PT072H.grib2 2026-05-02 15:00 321K
20260502T12Z_MSC_RDPS_DewPointDepression_IsbL-0350_RLatLon0.09_PT072H.grib2 2026-05-02 15:00 328K
20260502T12Z_MSC_RDPS_DewPointDepression_IsbL-0400_RLatLon0.09_PT072H.grib2 2026-05-02 15:00 339K
20260502T12Z_MSC_RDPS_DewPointDepression_IsbL-0450_RLatLon0.09_PT072H.grib2 2026-05-02 15:00 341K
20260502T12Z_MSC_RDPS_DewPointDepression_IsbL-0500_RLatLon0.09_PT072H.grib2 2026-05-02 15:00 345K
20260502T12Z_MSC_RDPS_DewPointDepression_IsbL-0550_RLatLon0.09_PT072H.grib2 2026-05-02 15:00 355K
20260502T12Z_MSC_RDPS_DewPointDepression_IsbL-0600_RLatLon0.09_PT072H.grib2 2026-05-02 15:00 364K
20260502T12Z_MSC_RDPS_DewPointDepression_IsbL-0650_RLatLon0.09_PT072H.grib2 2026-05-02 15:00 372K
20260502T12Z_MSC_RDPS_DewPointDepression_IsbL-0700_RLatLon0.09_PT072H.grib2 2026-05-02 15:00 385K
20260502T12Z_MSC_RDPS_DewPointDepression_IsbL-0750_RLatLon0.09_PT072H.grib2 2026-05-02 15:00 406K
20260502T12Z_MSC_RDPS_DewPointDepression_IsbL-0800_RLatLon0.09_PT072H.grib2 2026-05-02 15:00 444K
20260502T12Z_MSC_RDPS_DewPointDepression_IsbL-0850_RLatLon0.09_PT072H.grib2 2026-05-02 15:00 477K
20260502T12Z_MSC_RDPS_DewPointDepression_IsbL-0875_RLatLon0.09_PT072H.grib2 2026-05-02 15:00 476K
20260502T12Z_MSC_RDPS_DewPointDepression_IsbL-0900_RLatLon0.09_PT072H.grib2 2026-05-02 15:00 461K
20260502T12Z_MSC_RDPS_DewPointDepression_IsbL-0925_RLatLon0.09_PT072H.grib2 2026-05-02 15:00 448K
20260502T12Z_MSC_RDPS_DewPointDepression_IsbL-0950_RLatLon0.09_PT072H.grib2 2026-05-02 15:00 441K
20260502T12Z_MSC_RDPS_DewPointDepression_IsbL-0970_RLatLon0.09_PT072H.grib2 2026-05-02 15:00 439K
20260502T12Z_MSC_RDPS_DewPointDepression_IsbL-0985_RLatLon0.09_PT072H.grib2 2026-05-02 15:00 434K
20260502T12Z_MSC_RDPS_DewPointDepression_IsbL-1000_RLatLon0.09_PT072H.grib2 2026-05-02 15:00 431K
20260502T12Z_MSC_RDPS_DewPointDepression_IsbL-1015_RLatLon0.09_PT072H.grib2 2026-05-02 15:00 423K
20260502T12Z_MSC_RDPS_DewPoint_AGL-2m_RLatLon0.09_PT072H.grib2 2026-05-02 15:00 397K
20260502T12Z_MSC_RDPS_DownwardLongwaveRadiationFlux-Accum_Sfc_RLatLon0.09_PT072H.grib2 2026-05-02 15:00 427K
20260502T12Z_MSC_RDPS_DownwardShortwaveRadiationFlux-Accum_NTAtm_RLatLon0.09_PT072H.grib2 2026-05-02 15:00 133K
20260502T12Z_MSC_RDPS_DownwardShortwaveRadiationFlux-Accum_Sfc_RLatLon0.09_PT072H.grib2 2026-05-02 15:00 628K
20260502T12Z_MSC_RDPS_FreezingRain-Accum12h_Sfc_RLatLon0.09_PT072H.grib2 2026-05-02 15:00 88K
20260502T12Z_MSC_RDPS_FreezingRain-Accum1h_Sfc_RLatLon0.09_PT072H.grib2 2026-05-02 15:00 50K
20260502T12Z_MSC_RDPS_FreezingRain-Accum24h_Sfc_RLatLon0.09_PT072H.grib2 2026-05-02 15:00 111K
20260502T12Z_MSC_RDPS_FreezingRain-Accum3h_Sfc_RLatLon0.09_PT072H.grib2 2026-05-02 15:00 57K
20260502T12Z_MSC_RDPS_FreezingRain-Accum6h_Sfc_RLatLon0.09_PT072H.grib2 2026-05-02 15:00 77K
20260502T12Z_MSC_RDPS_FreezingRain-Accum_Sfc_RLatLon0.09_PT072H.grib2 2026-05-02 15:00 209K
20260502T12Z_MSC_RDPS_GeopotentialHeight_IsbL-0001_RLatLon0.09_PT072H.grib2 2026-05-02 15:00 321K
20260502T12Z_MSC_RDPS_GeopotentialHeight_IsbL-0005_RLatLon0.09_PT072H.grib2 2026-05-02 15:00 313K
20260502T12Z_MSC_RDPS_GeopotentialHeight_IsbL-0010_RLatLon0.09_PT072H.grib2 2026-05-02 15:00 313K
20260502T12Z_MSC_RDPS_GeopotentialHeight_IsbL-0020_RLatLon0.09_PT072H.grib2 2026-05-02 15:00 412K
20260502T12Z_MSC_RDPS_GeopotentialHeight_IsbL-0030_RLatLon0.09_PT072H.grib2 2026-05-02 15:00 414K
20260502T12Z_MSC_RDPS_GeopotentialHeight_IsbL-0050_RLatLon0.09_PT072H.grib2 2026-05-02 15:00 317K
20260502T12Z_MSC_RDPS_GeopotentialHeight_IsbL-0100_RLatLon0.09_PT072H.grib2 2026-05-02 15:00 290K
20260502T12Z_MSC_RDPS_GeopotentialHeight_IsbL-0150_RLatLon0.09_PT072H.grib2 2026-05-02 15:00 232K
20260502T12Z_MSC_RDPS_GeopotentialHeight_IsbL-0175_RLatLon0.09_PT072H.grib2 2026-05-02 15:00 235K
20260502T12Z_MSC_RDPS_GeopotentialHeight_IsbL-0200_RLatLon0.09_PT072H.grib2 2026-05-02 15:00 237K
20260502T12Z_MSC_RDPS_GeopotentialHeight_IsbL-0225_RLatLon0.09_PT072H.grib2 2026-05-02 15:00 238K
20260502T12Z_MSC_RDPS_GeopotentialHeight_IsbL-0250_RLatLon0.09_PT072H.grib2 2026-05-02 15:00 239K
20260502T12Z_MSC_RDPS_GeopotentialHeight_IsbL-0275_RLatLon0.09_PT072H.grib2 2026-05-02 15:00 238K
20260502T12Z_MSC_RDPS_GeopotentialHeight_IsbL-0300_RLatLon0.09_PT072H.grib2 2026-05-02 15:00 237K
20260502T12Z_MSC_RDPS_GeopotentialHeight_IsbL-0350_RLatLon0.09_PT072H.grib2 2026-05-02 15:00 233K
20260502T12Z_MSC_RDPS_GeopotentialHeight_IsbL-0400_RLatLon0.09_PT072H.grib2 2026-05-02 15:00 305K
20260502T12Z_MSC_RDPS_GeopotentialHeight_IsbL-0450_RLatLon0.09_PT072H.grib2 2026-05-02 15:00 301K
20260502T12Z_MSC_RDPS_GeopotentialHeight_IsbL-0500_RLatLon0.09_PT072H.grib2 2026-05-02 15:00 297K
20260502T12Z_MSC_RDPS_GeopotentialHeight_IsbL-0550_RLatLon0.09_PT072H.grib2 2026-05-02 15:00 294K
20260502T12Z_MSC_RDPS_GeopotentialHeight_IsbL-0600_RLatLon0.09_PT072H.grib2 2026-05-02 15:00 262K
20260502T12Z_MSC_RDPS_GeopotentialHeight_IsbL-0650_RLatLon0.09_PT072H.grib2 2026-05-02 15:00 260K
20260502T12Z_MSC_RDPS_GeopotentialHeight_IsbL-0700_RLatLon0.09_PT072H.grib2 2026-05-02 15:00 259K
20260502T12Z_MSC_RDPS_GeopotentialHeight_IsbL-0750_RLatLon0.09_PT072H.grib2 2026-05-02 15:00 346K
20260502T12Z_MSC_RDPS_GeopotentialHeight_IsbL-0800_RLatLon0.09_PT072H.grib2 2026-05-02 15:00 356K
20260502T12Z_MSC_RDPS_GeopotentialHeight_IsbL-0850_RLatLon0.09_PT072H.grib2 2026-05-02 15:00 368K
20260502T12Z_MSC_RDPS_GeopotentialHeight_IsbL-0875_RLatLon0.09_PT072H.grib2 2026-05-02 15:00 369K
20260502T12Z_MSC_RDPS_GeopotentialHeight_IsbL-0900_RLatLon0.09_PT072H.grib2 2026-05-02 15:00 283K
20260502T12Z_MSC_RDPS_GeopotentialHeight_IsbL-0925_RLatLon0.09_PT072H.grib2 2026-05-02 15:00 285K
20260502T12Z_MSC_RDPS_GeopotentialHeight_IsbL-0950_RLatLon0.09_PT072H.grib2 2026-05-02 15:00 287K
20260502T12Z_MSC_RDPS_GeopotentialHeight_IsbL-0970_RLatLon0.09_PT072H.grib2 2026-05-02 15:00 290K
20260502T12Z_MSC_RDPS_GeopotentialHeight_IsbL-0985_RLatLon0.09_PT072H.grib2 2026-05-02 15:00 297K
20260502T12Z_MSC_RDPS_GeopotentialHeight_IsbL-1000_RLatLon0.09_PT072H.grib2 2026-05-02 15:00 305K
20260502T12Z_MSC_RDPS_GeopotentialHeight_IsbL-1015_RLatLon0.09_PT072H.grib2 2026-05-02 15:00 318K
20260502T12Z_MSC_RDPS_Humidex_Sfc_RLatLon0.09_PT072H.grib2 2026-05-02 15:00 2.4M
20260502T12Z_MSC_RDPS_IcePellets-Accum12h_Sfc_RLatLon0.09_PT072H.grib2 2026-05-02 15:00 20K
20260502T12Z_MSC_RDPS_IcePellets-Accum1h_Sfc_RLatLon0.09_PT072H.grib2 2026-05-02 15:00 12K
20260502T12Z_MSC_RDPS_IcePellets-Accum24h_Sfc_RLatLon0.09_PT072H.grib2 2026-05-02 15:00 28K
20260502T12Z_MSC_RDPS_IcePellets-Accum3h_Sfc_RLatLon0.09_PT072H.grib2 2026-05-02 15:00 14K
20260502T12Z_MSC_RDPS_IcePellets-Accum6h_Sfc_RLatLon0.09_PT072H.grib2 2026-05-02 15:00 17K
20260502T12Z_MSC_RDPS_IcePellets-Accum_Sfc_RLatLon0.09_PT072H.grib2 2026-05-02 15:00 39K
20260502T12Z_MSC_RDPS_KIndex_Sfc_RLatLon0.09_PT072H.grib2 2026-05-02 15:00 2.5M
20260502T12Z_MSC_RDPS_LatentHeatNetFlux_Sfc_RLatLon0.09_PT072H.grib2 2026-05-02 15:00 346K
20260502T12Z_MSC_RDPS_LiftedIndex-MU-VT_IsbL-0500_RLatLon0.09_PT072H.grib2 2026-05-02 15:00 2.4M
20260502T12Z_MSC_RDPS_NetLongwaveRadiationFlux-Accum_Sfc_RLatLon0.09_PT072H.grib2 2026-05-02 15:00 477K
20260502T12Z_MSC_RDPS_NetShortwaveRadiationFlux-Accum_Sfc_RLatLon0.09_PT072H.grib2 2026-05-02 15:00 628K
20260502T12Z_MSC_RDPS_PlanetaryBoundaryLayerHeight_Sfc_RLatLon0.09_PT072H.grib2 2026-05-02 15:00 1.2M
20260502T12Z_MSC_RDPS_Precip-Accum12h_Sfc_RLatLon0.09_PT072H.grib2 2026-05-02 15:00 1.8M
20260502T12Z_MSC_RDPS_Precip-Accum1h_Sfc_RLatLon0.09_PT072H.grib2 2026-05-02 15:00 1.4M
20260502T12Z_MSC_RDPS_Precip-Accum24h_Sfc_RLatLon0.09_PT072H.grib2 2026-05-02 15:00 2.0M
20260502T12Z_MSC_RDPS_Precip-Accum3h_Sfc_RLatLon0.09_PT072H.grib2 2026-05-02 15:00 1.5M
20260502T12Z_MSC_RDPS_Precip-Accum6h_Sfc_RLatLon0.09_PT072H.grib2 2026-05-02 15:00 1.7M
20260502T12Z_MSC_RDPS_Precip-Accum_Sfc_RLatLon0.09_PT072H.grib2 2026-05-02 15:00 2.2M
20260502T12Z_MSC_RDPS_PrecipRate_Sfc_RLatLon0.09_PT072H.grib2 2026-05-02 15:00 263K
20260502T12Z_MSC_RDPS_PrecipType-Instant_Sfc_RLatLon0.09_PT072H.grib2 2026-05-02 15:00 631K
20260502T12Z_MSC_RDPS_Pressure-Trend3h_Sfc_RLatLon0.09_PT072H.grib2 2026-05-02 15:00 1.2M
20260502T12Z_MSC_RDPS_Pressure_MSL_RLatLon0.09_PT072H.grib2 2026-05-02 15:00 329K
20260502T12Z_MSC_RDPS_Pressure_PVU-1.5_RLatLon0.09_PT072H.grib2 2026-05-02 15:00 2.5M
20260502T12Z_MSC_RDPS_Pressure_PVU-1_RLatLon0.09_PT072H.grib2 2026-05-02 15:00 2.4M
20260502T12Z_MSC_RDPS_Pressure_PVU-2_RLatLon0.09_PT072H.grib2 2026-05-02 15:00 2.4M
20260502T12Z_MSC_RDPS_Pressure_Sfc_RLatLon0.09_PT072H.grib2 2026-05-02 15:00 500K
20260502T12Z_MSC_RDPS_RadiativeTemp_Sfc_RLatLon0.09_PT072H.grib2 2026-05-02 15:00 299K
20260502T12Z_MSC_RDPS_Rain-Accum12h_Sfc_RLatLon0.09_PT072H.grib2 2026-05-02 15:00 1.3M
20260502T12Z_MSC_RDPS_Rain-Accum1h_Sfc_RLatLon0.09_PT072H.grib2 2026-05-02 15:00 789K
20260502T12Z_MSC_RDPS_Rain-Accum24h_Sfc_RLatLon0.09_PT072H.grib2 2026-05-02 15:00 1.5M
20260502T12Z_MSC_RDPS_Rain-Accum3h_Sfc_RLatLon0.09_PT072H.grib2 2026-05-02 15:00 890K
20260502T12Z_MSC_RDPS_Rain-Accum6h_Sfc_RLatLon0.09_PT072H.grib2 2026-05-02 15:00 1.1M
20260502T12Z_MSC_RDPS_Rain-Accum_Sfc_RLatLon0.09_PT072H.grib2 2026-05-02 15:00 1.8M
20260502T12Z_MSC_RDPS_RelativeHumidity_AGL-2m_RLatLon0.09_PT072H.grib2 2026-05-02 15:00 1.0M
20260502T12Z_MSC_RDPS_RelativeHumidity_IsbL-0010_RLatLon0.09_PT072H.grib2 2026-05-02 15:00 691K
20260502T12Z_MSC_RDPS_RelativeHumidity_IsbL-0020_RLatLon0.09_PT072H.grib2 2026-05-02 15:00 741K
20260502T12Z_MSC_RDPS_RelativeHumidity_IsbL-0030_RLatLon0.09_PT072H.grib2 2026-05-02 15:00 603K
20260502T12Z_MSC_RDPS_RelativeHumidity_IsbL-0050_RLatLon0.09_PT072H.grib2 2026-05-02 15:00 363K
20260502T12Z_MSC_RDPS_RelativeHumidity_IsbL-0100_RLatLon0.09_PT072H.grib2 2026-05-02 15:00 283K
20260502T12Z_MSC_RDPS_RelativeHumidity_IsbL-0150_RLatLon0.09_PT072H.grib2 2026-05-02 15:00 413K
20260502T12Z_MSC_RDPS_RelativeHumidity_IsbL-0175_RLatLon0.09_PT072H.grib2 2026-05-02 15:00 483K
20260502T12Z_MSC_RDPS_RelativeHumidity_IsbL-0200_RLatLon0.09_PT072H.grib2 2026-05-02 15:00 559K
20260502T12Z_MSC_RDPS_RelativeHumidity_IsbL-0225_RLatLon0.09_PT072H.grib2 2026-05-02 15:00 619K
20260502T12Z_MSC_RDPS_RelativeHumidity_IsbL-0250_RLatLon0.09_PT072H.grib2 2026-05-02 15:00 676K
20260502T12Z_MSC_RDPS_RelativeHumidity_IsbL-0275_RLatLon0.09_PT072H.grib2 2026-05-02 15:00 698K
20260502T12Z_MSC_RDPS_RelativeHumidity_IsbL-0300_RLatLon0.09_PT072H.grib2 2026-05-02 15:00 741K
20260502T12Z_MSC_RDPS_RelativeHumidity_IsbL-0350_RLatLon0.09_PT072H.grib2 2026-05-02 15:00 769K
20260502T12Z_MSC_RDPS_RelativeHumidity_IsbL-0400_RLatLon0.09_PT072H.grib2 2026-05-02 15:00 785K
20260502T12Z_MSC_RDPS_RelativeHumidity_IsbL-0450_RLatLon0.09_PT072H.grib2 2026-05-02 15:00 789K
20260502T12Z_MSC_RDPS_RelativeHumidity_IsbL-0500_RLatLon0.09_PT072H.grib2 2026-05-02 15:00 793K
20260502T12Z_MSC_RDPS_RelativeHumidity_IsbL-0550_RLatLon0.09_PT072H.grib2 2026-05-02 15:00 807K
20260502T12Z_MSC_RDPS_RelativeHumidity_IsbL-0600_RLatLon0.09_PT072H.grib2 2026-05-02 15:00 826K
20260502T12Z_MSC_RDPS_RelativeHumidity_IsbL-0650_RLatLon0.09_PT072H.grib2 2026-05-02 15:00 851K
20260502T12Z_MSC_RDPS_RelativeHumidity_IsbL-0700_RLatLon0.09_PT072H.grib2 2026-05-02 15:00 870K
20260502T12Z_MSC_RDPS_RelativeHumidity_IsbL-0750_RLatLon0.09_PT072H.grib2 2026-05-02 15:00 913K
20260502T12Z_MSC_RDPS_RelativeHumidity_IsbL-0800_RLatLon0.09_PT072H.grib2 2026-05-02 15:00 1.0M
20260502T12Z_MSC_RDPS_RelativeHumidity_IsbL-0850_RLatLon0.09_PT072H.grib2 2026-05-02 15:00 1.0M
20260502T12Z_MSC_RDPS_RelativeHumidity_IsbL-0875_RLatLon0.09_PT072H.grib2 2026-05-02 15:00 1.1M
20260502T12Z_MSC_RDPS_RelativeHumidity_IsbL-0900_RLatLon0.09_PT072H.grib2 2026-05-02 15:00 1.1M
20260502T12Z_MSC_RDPS_RelativeHumidity_IsbL-0925_RLatLon0.09_PT072H.grib2 2026-05-02 15:00 1.1M
20260502T12Z_MSC_RDPS_RelativeHumidity_IsbL-0950_RLatLon0.09_PT072H.grib2 2026-05-02 15:00 1.1M
20260502T12Z_MSC_RDPS_RelativeHumidity_IsbL-0970_RLatLon0.09_PT072H.grib2 2026-05-02 15:00 1.1M
20260502T12Z_MSC_RDPS_RelativeHumidity_IsbL-0985_RLatLon0.09_PT072H.grib2 2026-05-02 15:00 1.0M
20260502T12Z_MSC_RDPS_RelativeHumidity_IsbL-1000_RLatLon0.09_PT072H.grib2 2026-05-02 15:00 1.0M
20260502T12Z_MSC_RDPS_RelativeHumidity_IsbL-1015_RLatLon0.09_PT072H.grib2 2026-05-02 15:00 1.0M
20260502T12Z_MSC_RDPS_Runoff-Accum_Sfc_RLatLon0.09_PT072H.grib2 2026-05-02 15:00 67K
20260502T12Z_MSC_RDPS_SWEATIndex_Sfc_RLatLon0.09_PT072H.grib2 2026-05-02 15:00 2.4M
20260502T12Z_MSC_RDPS_SeeingIndex_EAtm_RLatLon0.09_PT072H.grib2 2026-05-02 15:00 1.0M
20260502T12Z_MSC_RDPS_SensibleHeatNetFlux_Sfc_RLatLon0.09_PT072H.grib2 2026-05-02 15:00 315K
20260502T12Z_MSC_RDPS_ShowalterIndex_IsbL-0500_RLatLon0.09_PT072H.grib2 2026-05-02 15:00 2.6M
20260502T12Z_MSC_RDPS_SkyTransparencyIndex_EAtm_RLatLon0.09_PT072H.grib2 2026-05-02 15:00 702K
20260502T12Z_MSC_RDPS_Snow-Accum12h_Sfc_RLatLon0.09_PT072H.grib2 2026-05-02 15:00 554K
20260502T12Z_MSC_RDPS_Snow-Accum1h_Sfc_RLatLon0.09_PT072H.grib2 2026-05-02 15:00 478K
20260502T12Z_MSC_RDPS_Snow-Accum24h_Sfc_RLatLon0.09_PT072H.grib2 2026-05-02 15:00 674K
20260502T12Z_MSC_RDPS_Snow-Accum3h_Sfc_RLatLon0.09_PT072H.grib2 2026-05-02 15:00 404K
20260502T12Z_MSC_RDPS_Snow-Accum6h_Sfc_RLatLon0.09_PT072H.grib2 2026-05-02 15:00 545K
20260502T12Z_MSC_RDPS_Snow-Accum_Sfc_RLatLon0.09_PT072H.grib2 2026-05-02 15:00 799K
20260502T12Z_MSC_RDPS_SnowDensity_Sfc_RLatLon0.09_PT072H.grib2 2026-05-02 15:00 177K
20260502T12Z_MSC_RDPS_SnowDepth_Sfc_RLatLon0.09_PT072H.grib2 2026-05-02 15:00 659K
20260502T12Z_MSC_RDPS_SoilTemp_DBS-0to10cm_RLatLon0.09_PT072H.grib2 2026-05-02 15:00 242K
20260502T12Z_MSC_RDPS_SoilTemp_Sfc_RLatLon0.09_PT072H.grib2 2026-05-02 15:00 270K
20260502T12Z_MSC_RDPS_SoilVolumetricIceContent_Sfc_RLatLon0.09_PT072H.grib2 2026-05-02 15:00 154K
20260502T12Z_MSC_RDPS_SoilVolumetricWaterContent_DBS-0to10cm_RLatLon0.09_PT072H.grib2 2026-05-02 15:00 278K
20260502T12Z_MSC_RDPS_SoilVolumetricWaterContent_DBS-0to1cm_RLatLon0.09_PT072H.grib2 2026-05-02 15:00 344K
20260502T12Z_MSC_RDPS_SpecificHumidity_AGL-120m_RLatLon0.09_PT072H.grib2 2026-05-02 15:00 496K
20260502T12Z_MSC_RDPS_SpecificHumidity_AGL-2m_RLatLon0.09_PT072H.grib2 2026-05-02 15:00 667K
20260502T12Z_MSC_RDPS_SpecificHumidity_AGL-40m_RLatLon0.09_PT072H.grib2 2026-05-02 15:00 503K
20260502T12Z_MSC_RDPS_SpecificHumidity_AGL-80m_RLatLon0.09_PT072H.grib2 2026-05-02 15:00 498K
20260502T12Z_MSC_RDPS_SpecificHumidity_IsbL-0001_RLatLon0.09_PT072H.grib2 2026-05-02 15:00 405K
20260502T12Z_MSC_RDPS_SpecificHumidity_IsbL-0005_RLatLon0.09_PT072H.grib2 2026-05-02 15:00 360K
20260502T12Z_MSC_RDPS_SpecificHumidity_IsbL-0010_RLatLon0.09_PT072H.grib2 2026-05-02 15:00 394K
20260502T12Z_MSC_RDPS_SpecificHumidity_IsbL-0020_RLatLon0.09_PT072H.grib2 2026-05-02 15:00 373K
20260502T12Z_MSC_RDPS_SpecificHumidity_IsbL-0030_RLatLon0.09_PT072H.grib2 2026-05-02 15:00 366K
20260502T12Z_MSC_RDPS_SpecificHumidity_IsbL-0050_RLatLon0.09_PT072H.grib2 2026-05-02 15:00 444K
20260502T12Z_MSC_RDPS_SpecificHumidity_IsbL-0100_RLatLon0.09_PT072H.grib2 2026-05-02 15:00 419K
20260502T12Z_MSC_RDPS_SpecificHumidity_IsbL-0150_RLatLon0.09_PT072H.grib2 2026-05-02 15:00 447K
20260502T12Z_MSC_RDPS_SpecificHumidity_IsbL-0175_RLatLon0.09_PT072H.grib2 2026-05-02 15:00 443K
20260502T12Z_MSC_RDPS_SpecificHumidity_IsbL-0200_RLatLon0.09_PT072H.grib2 2026-05-02 15:00 459K
20260502T12Z_MSC_RDPS_SpecificHumidity_IsbL-0225_RLatLon0.09_PT072H.grib2 2026-05-02 15:00 457K
20260502T12Z_MSC_RDPS_SpecificHumidity_IsbL-0250_RLatLon0.09_PT072H.grib2 2026-05-02 15:00 557K
20260502T12Z_MSC_RDPS_SpecificHumidity_IsbL-0275_RLatLon0.09_PT072H.grib2 2026-05-02 15:00 471K
20260502T12Z_MSC_RDPS_SpecificHumidity_IsbL-0300_RLatLon0.09_PT072H.grib2 2026-05-02 15:00 542K
20260502T12Z_MSC_RDPS_SpecificHumidity_IsbL-0350_RLatLon0.09_PT072H.grib2 2026-05-02 15:00 541K
20260502T12Z_MSC_RDPS_SpecificHumidity_IsbL-0400_RLatLon0.09_PT072H.grib2 2026-05-02 15:00 523K
20260502T12Z_MSC_RDPS_SpecificHumidity_IsbL-0450_RLatLon0.09_PT072H.grib2 2026-05-02 15:00 570K
20260502T12Z_MSC_RDPS_SpecificHumidity_IsbL-0500_RLatLon0.09_PT072H.grib2 2026-05-02 15:00 502K
20260502T12Z_MSC_RDPS_SpecificHumidity_IsbL-0550_RLatLon0.09_PT072H.grib2 2026-05-02 15:00 554K
20260502T12Z_MSC_RDPS_SpecificHumidity_IsbL-0600_RLatLon0.09_PT072H.grib2 2026-05-02 15:00 623K
20260502T12Z_MSC_RDPS_SpecificHumidity_IsbL-0650_RLatLon0.09_PT072H.grib2 2026-05-02 15:00 541K
20260502T12Z_MSC_RDPS_SpecificHumidity_IsbL-0700_RLatLon0.09_PT072H.grib2 2026-05-02 15:00 587K
20260502T12Z_MSC_RDPS_SpecificHumidity_IsbL-0750_RLatLon0.09_PT072H.grib2 2026-05-02 15:00 644K
20260502T12Z_MSC_RDPS_SpecificHumidity_IsbL-0800_RLatLon0.09_PT072H.grib2 2026-05-02 15:00 719K
20260502T12Z_MSC_RDPS_SpecificHumidity_IsbL-0850_RLatLon0.09_PT072H.grib2 2026-05-02 15:00 810K
20260502T12Z_MSC_RDPS_SpecificHumidity_IsbL-0875_RLatLon0.09_PT072H.grib2 2026-05-02 15:00 835K
20260502T12Z_MSC_RDPS_SpecificHumidity_IsbL-0900_RLatLon0.09_PT072H.grib2 2026-05-02 15:00 843K
20260502T12Z_MSC_RDPS_SpecificHumidity_IsbL-0925_RLatLon0.09_PT072H.grib2 2026-05-02 15:00 842K
20260502T12Z_MSC_RDPS_SpecificHumidity_IsbL-0950_RLatLon0.09_PT072H.grib2 2026-05-02 15:00 842K
20260502T12Z_MSC_RDPS_SpecificHumidity_IsbL-0970_RLatLon0.09_PT072H.grib2 2026-05-02 15:00 699K
20260502T12Z_MSC_RDPS_SpecificHumidity_IsbL-0985_RLatLon0.09_PT072H.grib2 2026-05-02 15:00 692K
20260502T12Z_MSC_RDPS_SpecificHumidity_IsbL-1000_RLatLon0.09_PT072H.grib2 2026-05-02 15:00 688K
20260502T12Z_MSC_RDPS_SpecificHumidity_IsbL-1015_RLatLon0.09_PT072H.grib2 2026-05-02 15:00 682K
20260502T12Z_MSC_RDPS_SpecificHumidity_Sfc_RLatLon0.09_PT072H.grib2 2026-05-02 15:00 298K
20260502T12Z_MSC_RDPS_StormRelativeHelicity_EtaL-10000_RLatLon0.09_PT072H.grib2 2026-05-02 15:00 1.1M
20260502T12Z_MSC_RDPS_StormSeverityIndex_EtaL-10000_RLatLon0.09_PT072H.grib2 2026-05-02 15:00 1.2M
20260502T12Z_MSC_RDPS_Thickness_IsbL-0850to0700_RLatLon0.09_PT072H.grib2 2026-05-02 15:00 179K
20260502T12Z_MSC_RDPS_Thickness_IsbL-1000to0500_RLatLon0.09_PT072H.grib2 2026-05-02 15:00 200K
20260502T12Z_MSC_RDPS_Thickness_IsbL-1000to0850_RLatLon0.09_PT072H.grib2 2026-05-02 15:00 263K
20260502T12Z_MSC_RDPS_TotalCloudCover_Sfc_RLatLon0.09_PT072H.grib2 2026-05-02 15:00 672K
20260502T12Z_MSC_RDPS_TotalTotalsIndex_Sfc_RLatLon0.09_PT072H.grib2 2026-05-02 15:00 2.4M
20260502T12Z_MSC_RDPS_UVIndex-ClearSky_Sfc_RLatLon0.09_PT072H.grib2 2026-05-02 15:00 145K
20260502T12Z_MSC_RDPS_UVIndex_Sfc_RLatLon0.09_PT072H.grib2 2026-05-02 15:00 354K
20260502T12Z_MSC_RDPS_UpwardLongwaveRadiationFlux_NTAtm_RLatLon0.09_PT072H.grib2 2026-05-02 15:00 489K
20260502T12Z_MSC_RDPS_UpwardShortwaveRadiationFlux_NTAtm_RLatLon0.09_PT072H.grib2 2026-05-02 15:00 314K
20260502T12Z_MSC_RDPS_VerticalVelocity_IsbL-0250_RLatLon0.09_PT072H.grib2 2026-05-02 15:00 562K
20260502T12Z_MSC_RDPS_VerticalVelocity_IsbL-0500_RLatLon0.09_PT072H.grib2 2026-05-02 15:00 557K
20260502T12Z_MSC_RDPS_VerticalVelocity_IsbL-0700_RLatLon0.09_PT072H.grib2 2026-05-02 15:00 605K
20260502T12Z_MSC_RDPS_VerticalVelocity_IsbL-0850_RLatLon0.09_PT072H.grib2 2026-05-02 15:00 713K
20260502T12Z_MSC_RDPS_VerticalWindShear_EtaL-6500_RLatLon0.09_PT072H.grib2 2026-05-02 15:00 1.2M
20260502T12Z_MSC_RDPS_WindChill_Sfc_RLatLon0.09_PT072H.grib2 2026-05-02 15:00 1.2M
20260502T12Z_MSC_RDPS_WindDir_AGL-10m_RLatLon0.09_PT072H.grib2 2026-05-02 15:00 1.0M
20260502T12Z_MSC_RDPS_WindDir_AGL-120m_RLatLon0.09_PT072H.grib2 2026-05-02 15:00 606K
20260502T12Z_MSC_RDPS_WindDir_AGL-40m_RLatLon0.09_PT072H.grib2 2026-05-02 15:00 637K
20260502T12Z_MSC_RDPS_WindDir_AGL-80m_RLatLon0.09_PT072H.grib2 2026-05-02 15:00 618K
20260502T12Z_MSC_RDPS_WindDir_IsbL-0001_RLatLon0.09_PT072H.grib2 2026-05-02 15:00 313K
20260502T12Z_MSC_RDPS_WindDir_IsbL-0005_RLatLon0.09_PT072H.grib2 2026-05-02 15:00 393K
20260502T12Z_MSC_RDPS_WindDir_IsbL-0010_RLatLon0.09_PT072H.grib2 2026-05-02 15:00 398K
20260502T12Z_MSC_RDPS_WindDir_IsbL-0020_RLatLon0.09_PT072H.grib2 2026-05-02 15:00 421K
20260502T12Z_MSC_RDPS_WindDir_IsbL-0030_RLatLon0.09_PT072H.grib2 2026-05-02 15:00 421K
20260502T12Z_MSC_RDPS_WindDir_IsbL-0050_RLatLon0.09_PT072H.grib2 2026-05-02 15:00 431K
20260502T12Z_MSC_RDPS_WindDir_IsbL-0100_RLatLon0.09_PT072H.grib2 2026-05-02 15:00 419K
20260502T12Z_MSC_RDPS_WindDir_IsbL-0150_RLatLon0.09_PT072H.grib2 2026-05-02 15:00 402K
20260502T12Z_MSC_RDPS_WindDir_IsbL-0175_RLatLon0.09_PT072H.grib2 2026-05-02 15:00 428K
20260502T12Z_MSC_RDPS_WindDir_IsbL-0200_RLatLon0.09_PT072H.grib2 2026-05-02 15:00 445K
20260502T12Z_MSC_RDPS_WindDir_IsbL-0225_RLatLon0.09_PT072H.grib2 2026-05-02 15:00 453K
20260502T12Z_MSC_RDPS_WindDir_IsbL-0250_RLatLon0.09_PT072H.grib2 2026-05-02 15:00 450K
20260502T12Z_MSC_RDPS_WindDir_IsbL-0275_RLatLon0.09_PT072H.grib2 2026-05-02 15:00 472K
20260502T12Z_MSC_RDPS_WindDir_IsbL-0300_RLatLon0.09_PT072H.grib2 2026-05-02 15:00 476K
20260502T12Z_MSC_RDPS_WindDir_IsbL-0350_RLatLon0.09_PT072H.grib2 2026-05-02 15:00 499K
20260502T12Z_MSC_RDPS_WindDir_IsbL-0400_RLatLon0.09_PT072H.grib2 2026-05-02 15:00 518K
20260502T12Z_MSC_RDPS_WindDir_IsbL-0450_RLatLon0.09_PT072H.grib2 2026-05-02 15:00 535K
20260502T12Z_MSC_RDPS_WindDir_IsbL-0500_RLatLon0.09_PT072H.grib2 2026-05-02 15:00 540K
20260502T12Z_MSC_RDPS_WindDir_IsbL-0550_RLatLon0.09_PT072H.grib2 2026-05-02 15:00 555K
20260502T12Z_MSC_RDPS_WindDir_IsbL-0600_RLatLon0.09_PT072H.grib2 2026-05-02 15:00 580K
20260502T12Z_MSC_RDPS_WindDir_IsbL-0650_RLatLon0.09_PT072H.grib2 2026-05-02 15:00 620K
20260502T12Z_MSC_RDPS_WindDir_IsbL-0700_RLatLon0.09_PT072H.grib2 2026-05-02 15:00 662K
20260502T12Z_MSC_RDPS_WindDir_IsbL-0750_RLatLon0.09_PT072H.grib2 2026-05-02 15:00 714K
20260502T12Z_MSC_RDPS_WindDir_IsbL-0800_RLatLon0.09_PT072H.grib2 2026-05-02 15:00 784K
20260502T12Z_MSC_RDPS_WindDir_IsbL-0850_RLatLon0.09_PT072H.grib2 2026-05-02 15:00 871K
20260502T12Z_MSC_RDPS_WindDir_IsbL-0875_RLatLon0.09_PT072H.grib2 2026-05-02 15:00 904K
20260502T12Z_MSC_RDPS_WindDir_IsbL-0900_RLatLon0.09_PT072H.grib2 2026-05-02 15:00 915K
20260502T12Z_MSC_RDPS_WindDir_IsbL-0925_RLatLon0.09_PT072H.grib2 2026-05-02 15:00 917K
20260502T12Z_MSC_RDPS_WindDir_IsbL-0950_RLatLon0.09_PT072H.grib2 2026-05-02 15:00 913K
20260502T12Z_MSC_RDPS_WindDir_IsbL-0970_RLatLon0.09_PT072H.grib2 2026-05-02 15:00 920K
20260502T12Z_MSC_RDPS_WindDir_IsbL-0985_RLatLon0.09_PT072H.grib2 2026-05-02 15:00 929K
20260502T12Z_MSC_RDPS_WindDir_IsbL-1000_RLatLon0.09_PT072H.grib2 2026-05-02 15:00 946K
20260502T12Z_MSC_RDPS_WindDir_IsbL-1015_RLatLon0.09_PT072H.grib2 2026-05-02 15:00 964K
20260502T12Z_MSC_RDPS_WindGust-Max_AGL-10m_RLatLon0.09_PT072H.grib2 2026-05-02 15:00 969K
20260502T12Z_MSC_RDPS_WindGust-Min_AGL-10m_RLatLon0.09_PT072H.grib2 2026-05-02 15:00 1.0M
20260502T12Z_MSC_RDPS_WindGust_AGL-10m_RLatLon0.09_PT072H.grib2 2026-05-02 15:00 1.0M
20260502T12Z_MSC_RDPS_WindSpeed_AGL-10m_RLatLon0.09_PT072H.grib2 2026-05-02 15:00 860K
20260502T12Z_MSC_RDPS_WindSpeed_AGL-120m_RLatLon0.09_PT072H.grib2 2026-05-02 15:00 564K
20260502T12Z_MSC_RDPS_WindSpeed_AGL-40m_RLatLon0.09_PT072H.grib2 2026-05-02 15:00 557K
20260502T12Z_MSC_RDPS_WindSpeed_AGL-80m_RLatLon0.09_PT072H.grib2 2026-05-02 15:00 555K
20260502T12Z_MSC_RDPS_WindSpeed_IsbL-0001_RLatLon0.09_PT072H.grib2 2026-05-02 15:00 337K
20260502T12Z_MSC_RDPS_WindSpeed_IsbL-0005_RLatLon0.09_PT072H.grib2 2026-05-02 15:00 388K
20260502T12Z_MSC_RDPS_WindSpeed_IsbL-0010_RLatLon0.09_PT072H.grib2 2026-05-02 15:00 371K
20260502T12Z_MSC_RDPS_WindSpeed_IsbL-0020_RLatLon0.09_PT072H.grib2 2026-05-02 15:00 424K
20260502T12Z_MSC_RDPS_WindSpeed_IsbL-0030_RLatLon0.09_PT072H.grib2 2026-05-02 15:00 325K
20260502T12Z_MSC_RDPS_WindSpeed_IsbL-0050_RLatLon0.09_PT072H.grib2 2026-05-02 15:00 354K
20260502T12Z_MSC_RDPS_WindSpeed_IsbL-0100_RLatLon0.09_PT072H.grib2 2026-05-02 15:00 483K
20260502T12Z_MSC_RDPS_WindSpeed_IsbL-0150_RLatLon0.09_PT072H.grib2 2026-05-02 15:00 384K
20260502T12Z_MSC_RDPS_WindSpeed_IsbL-0175_RLatLon0.09_PT072H.grib2 2026-05-02 15:00 431K
20260502T12Z_MSC_RDPS_WindSpeed_IsbL-0200_RLatLon0.09_PT072H.grib2 2026-05-02 15:00 441K
20260502T12Z_MSC_RDPS_WindSpeed_IsbL-0225_RLatLon0.09_PT072H.grib2 2026-05-02 15:00 446K
20260502T12Z_MSC_RDPS_WindSpeed_IsbL-0250_RLatLon0.09_PT072H.grib2 2026-05-02 15:00 449K
20260502T12Z_MSC_RDPS_WindSpeed_IsbL-0275_RLatLon0.09_PT072H.grib2 2026-05-02 15:00 465K
20260502T12Z_MSC_RDPS_WindSpeed_IsbL-0300_RLatLon0.09_PT072H.grib2 2026-05-02 15:00 464K
20260502T12Z_MSC_RDPS_WindSpeed_IsbL-0350_RLatLon0.09_PT072H.grib2 2026-05-02 15:00 478K
20260502T12Z_MSC_RDPS_WindSpeed_IsbL-0400_RLatLon0.09_PT072H.grib2 2026-05-02 15:00 481K
20260502T12Z_MSC_RDPS_WindSpeed_IsbL-0450_RLatLon0.09_PT072H.grib2 2026-05-02 15:00 465K
20260502T12Z_MSC_RDPS_WindSpeed_IsbL-0500_RLatLon0.09_PT072H.grib2 2026-05-02 15:00 467K
20260502T12Z_MSC_RDPS_WindSpeed_IsbL-0550_RLatLon0.09_PT072H.grib2 2026-05-02 15:00 466K
20260502T12Z_MSC_RDPS_WindSpeed_IsbL-0600_RLatLon0.09_PT072H.grib2 2026-05-02 15:00 593K
20260502T12Z_MSC_RDPS_WindSpeed_IsbL-0650_RLatLon0.09_PT072H.grib2 2026-05-02 15:00 613K
20260502T12Z_MSC_RDPS_WindSpeed_IsbL-0700_RLatLon0.09_PT072H.grib2 2026-05-02 15:00 635K
20260502T12Z_MSC_RDPS_WindSpeed_IsbL-0750_RLatLon0.09_PT072H.grib2 2026-05-02 15:00 665K
20260502T12Z_MSC_RDPS_WindSpeed_IsbL-0800_RLatLon0.09_PT072H.grib2 2026-05-02 15:00 765K
20260502T12Z_MSC_RDPS_WindSpeed_IsbL-0850_RLatLon0.09_PT072H.grib2 2026-05-02 15:00 836K
20260502T12Z_MSC_RDPS_WindSpeed_IsbL-0875_RLatLon0.09_PT072H.grib2 2026-05-02 15:00 861K
20260502T12Z_MSC_RDPS_WindSpeed_IsbL-0900_RLatLon0.09_PT072H.grib2 2026-05-02 15:00 828K
20260502T12Z_MSC_RDPS_WindSpeed_IsbL-0925_RLatLon0.09_PT072H.grib2 2026-05-02 15:00 838K
20260502T12Z_MSC_RDPS_WindSpeed_IsbL-0950_RLatLon0.09_PT072H.grib2 2026-05-02 15:00 837K
20260502T12Z_MSC_RDPS_WindSpeed_IsbL-0970_RLatLon0.09_PT072H.grib2 2026-05-02 15:00 880K
20260502T12Z_MSC_RDPS_WindSpeed_IsbL-0985_RLatLon0.09_PT072H.grib2 2026-05-02 15:00 875K
20260502T12Z_MSC_RDPS_WindSpeed_IsbL-1000_RLatLon0.09_PT072H.grib2 2026-05-02 15:00 871K
20260502T12Z_MSC_RDPS_WindSpeed_IsbL-1015_RLatLon0.09_PT072H.grib2 2026-05-02 15:00 859K
20260502T12Z_MSC_RDPS_WindU_AGL-10m_RLatLon0.09_PT072H.grib2 2026-05-02 15:00 440K
20260502T12Z_MSC_RDPS_WindU_AGL-120m_RLatLon0.09_PT072H.grib2 2026-05-02 15:00 429K
20260502T12Z_MSC_RDPS_WindU_AGL-40m_RLatLon0.09_PT072H.grib2 2026-05-02 15:00 549K
20260502T12Z_MSC_RDPS_WindU_AGL-80m_RLatLon0.09_PT072H.grib2 2026-05-02 15:00 430K
20260502T12Z_MSC_RDPS_WindU_IsbL-0001_RLatLon0.09_PT072H.grib2 2026-05-02 15:00 247K
20260502T12Z_MSC_RDPS_WindU_IsbL-0005_RLatLon0.09_PT072H.grib2 2026-05-02 15:00 286K
20260502T12Z_MSC_RDPS_WindU_IsbL-0010_RLatLon0.09_PT072H.grib2 2026-05-02 15:00 299K
20260502T12Z_MSC_RDPS_WindU_IsbL-0020_RLatLon0.09_PT072H.grib2 2026-05-02 15:00 316K
20260502T12Z_MSC_RDPS_WindU_IsbL-0030_RLatLon0.09_PT072H.grib2 2026-05-02 15:00 354K
20260502T12Z_MSC_RDPS_WindU_IsbL-0050_RLatLon0.09_PT072H.grib2 2026-05-02 15:00 384K
20260502T12Z_MSC_RDPS_WindU_IsbL-0100_RLatLon0.09_PT072H.grib2 2026-05-02 15:00 339K
20260502T12Z_MSC_RDPS_WindU_IsbL-0150_RLatLon0.09_PT072H.grib2 2026-05-02 15:00 398K
20260502T12Z_MSC_RDPS_WindU_IsbL-0175_RLatLon0.09_PT072H.grib2 2026-05-02 15:00 328K
20260502T12Z_MSC_RDPS_WindU_IsbL-0200_RLatLon0.09_PT072H.grib2 2026-05-02 15:00 336K
20260502T12Z_MSC_RDPS_WindU_IsbL-0225_RLatLon0.09_PT072H.grib2 2026-05-02 15:00 339K
20260502T12Z_MSC_RDPS_WindU_IsbL-0250_RLatLon0.09_PT072H.grib2 2026-05-02 15:00 341K
20260502T12Z_MSC_RDPS_WindU_IsbL-0275_RLatLon0.09_PT072H.grib2 2026-05-02 15:00 354K
20260502T12Z_MSC_RDPS_WindU_IsbL-0300_RLatLon0.09_PT072H.grib2 2026-05-02 15:00 352K
20260502T12Z_MSC_RDPS_WindU_IsbL-0350_RLatLon0.09_PT072H.grib2 2026-05-02 15:00 363K
20260502T12Z_MSC_RDPS_WindU_IsbL-0400_RLatLon0.09_PT072H.grib2 2026-05-02 15:00 365K
20260502T12Z_MSC_RDPS_WindU_IsbL-0450_RLatLon0.09_PT072H.grib2 2026-05-02 15:00 366K
20260502T12Z_MSC_RDPS_WindU_IsbL-0500_RLatLon0.09_PT072H.grib2 2026-05-02 15:00 471K
20260502T12Z_MSC_RDPS_WindU_IsbL-0550_RLatLon0.09_PT072H.grib2 2026-05-02 15:00 472K
20260502T12Z_MSC_RDPS_WindU_IsbL-0600_RLatLon0.09_PT072H.grib2 2026-05-02 15:00 481K
20260502T12Z_MSC_RDPS_WindU_IsbL-0650_RLatLon0.09_PT072H.grib2 2026-05-02 15:00 499K
20260502T12Z_MSC_RDPS_WindU_IsbL-0700_RLatLon0.09_PT072H.grib2 2026-05-02 15:00 504K
20260502T12Z_MSC_RDPS_WindU_IsbL-0750_RLatLon0.09_PT072H.grib2 2026-05-02 15:00 531K
20260502T12Z_MSC_RDPS_WindU_IsbL-0800_RLatLon0.09_PT072H.grib2 2026-05-02 15:00 579K
20260502T12Z_MSC_RDPS_WindU_IsbL-0850_RLatLon0.09_PT072H.grib2 2026-05-02 15:00 642K
20260502T12Z_MSC_RDPS_WindU_IsbL-0875_RLatLon0.09_PT072H.grib2 2026-05-02 15:00 670K
20260502T12Z_MSC_RDPS_WindU_IsbL-0900_RLatLon0.09_PT072H.grib2 2026-05-02 15:00 678K
20260502T12Z_MSC_RDPS_WindU_IsbL-0925_RLatLon0.09_PT072H.grib2 2026-05-02 15:00 683K
20260502T12Z_MSC_RDPS_WindU_IsbL-0950_RLatLon0.09_PT072H.grib2 2026-05-02 15:00 673K
20260502T12Z_MSC_RDPS_WindU_IsbL-0970_RLatLon0.09_PT072H.grib2 2026-05-02 15:00 667K
20260502T12Z_MSC_RDPS_WindU_IsbL-0985_RLatLon0.09_PT072H.grib2 2026-05-02 15:00 662K
20260502T12Z_MSC_RDPS_WindU_IsbL-1000_RLatLon0.09_PT072H.grib2 2026-05-02 15:00 799K
20260502T12Z_MSC_RDPS_WindU_IsbL-1015_RLatLon0.09_PT072H.grib2 2026-05-02 15:00 795K
20260502T12Z_MSC_RDPS_WindV_AGL-10m_RLatLon0.09_PT072H.grib2 2026-05-02 15:00 442K
20260502T12Z_MSC_RDPS_WindV_AGL-120m_RLatLon0.09_PT072H.grib2 2026-05-02 15:00 429K
20260502T12Z_MSC_RDPS_WindV_AGL-40m_RLatLon0.09_PT072H.grib2 2026-05-02 15:00 551K
20260502T12Z_MSC_RDPS_WindV_AGL-80m_RLatLon0.09_PT072H.grib2 2026-05-02 15:00 430K
20260502T12Z_MSC_RDPS_WindV_IsbL-0001_RLatLon0.09_PT072H.grib2 2026-05-02 15:00 251K
20260502T12Z_MSC_RDPS_WindV_IsbL-0005_RLatLon0.09_PT072H.grib2 2026-05-02 15:00 292K
20260502T12Z_MSC_RDPS_WindV_IsbL-0010_RLatLon0.09_PT072H.grib2 2026-05-02 15:00 302K
20260502T12Z_MSC_RDPS_WindV_IsbL-0020_RLatLon0.09_PT072H.grib2 2026-05-02 15:00 320K
20260502T12Z_MSC_RDPS_WindV_IsbL-0030_RLatLon0.09_PT072H.grib2 2026-05-02 15:00 357K
20260502T12Z_MSC_RDPS_WindV_IsbL-0050_RLatLon0.09_PT072H.grib2 2026-05-02 15:00 351K
20260502T12Z_MSC_RDPS_WindV_IsbL-0100_RLatLon0.09_PT072H.grib2 2026-05-02 15:00 338K
20260502T12Z_MSC_RDPS_WindV_IsbL-0150_RLatLon0.09_PT072H.grib2 2026-05-02 15:00 396K
20260502T12Z_MSC_RDPS_WindV_IsbL-0175_RLatLon0.09_PT072H.grib2 2026-05-02 15:00 326K
20260502T12Z_MSC_RDPS_WindV_IsbL-0200_RLatLon0.09_PT072H.grib2 2026-05-02 15:00 335K
20260502T12Z_MSC_RDPS_WindV_IsbL-0225_RLatLon0.09_PT072H.grib2 2026-05-02 15:00 364K
20260502T12Z_MSC_RDPS_WindV_IsbL-0250_RLatLon0.09_PT072H.grib2 2026-05-02 15:00 366K
20260502T12Z_MSC_RDPS_WindV_IsbL-0275_RLatLon0.09_PT072H.grib2 2026-05-02 15:00 378K
20260502T12Z_MSC_RDPS_WindV_IsbL-0300_RLatLon0.09_PT072H.grib2 2026-05-02 15:00 377K
20260502T12Z_MSC_RDPS_WindV_IsbL-0350_RLatLon0.09_PT072H.grib2 2026-05-02 15:00 361K
20260502T12Z_MSC_RDPS_WindV_IsbL-0400_RLatLon0.09_PT072H.grib2 2026-05-02 15:00 365K
20260502T12Z_MSC_RDPS_WindV_IsbL-0450_RLatLon0.09_PT072H.grib2 2026-05-02 15:00 367K
20260502T12Z_MSC_RDPS_WindV_IsbL-0500_RLatLon0.09_PT072H.grib2 2026-05-02 15:00 470K
20260502T12Z_MSC_RDPS_WindV_IsbL-0550_RLatLon0.09_PT072H.grib2 2026-05-02 15:00 471K
20260502T12Z_MSC_RDPS_WindV_IsbL-0600_RLatLon0.09_PT072H.grib2 2026-05-02 15:00 478K
20260502T12Z_MSC_RDPS_WindV_IsbL-0650_RLatLon0.09_PT072H.grib2 2026-05-02 15:00 479K
20260502T12Z_MSC_RDPS_WindV_IsbL-0700_RLatLon0.09_PT072H.grib2 2026-05-02 15:00 499K
20260502T12Z_MSC_RDPS_WindV_IsbL-0750_RLatLon0.09_PT072H.grib2 2026-05-02 15:00 525K
20260502T12Z_MSC_RDPS_WindV_IsbL-0800_RLatLon0.09_PT072H.grib2 2026-05-02 15:00 575K
20260502T12Z_MSC_RDPS_WindV_IsbL-0850_RLatLon0.09_PT072H.grib2 2026-05-02 15:00 637K
20260502T12Z_MSC_RDPS_WindV_IsbL-0875_RLatLon0.09_PT072H.grib2 2026-05-02 15:00 659K
20260502T12Z_MSC_RDPS_WindV_IsbL-0900_RLatLon0.09_PT072H.grib2 2026-05-02 15:00 670K
20260502T12Z_MSC_RDPS_WindV_IsbL-0925_RLatLon0.09_PT072H.grib2 2026-05-02 15:00 676K
20260502T12Z_MSC_RDPS_WindV_IsbL-0950_RLatLon0.09_PT072H.grib2 2026-05-02 15:00 672K
20260502T12Z_MSC_RDPS_WindV_IsbL-0970_RLatLon0.09_PT072H.grib2 2026-05-02 15:00 669K
20260502T12Z_MSC_RDPS_WindV_IsbL-0985_RLatLon0.09_PT072H.grib2 2026-05-02 15:00 665K
20260502T12Z_MSC_RDPS_WindV_IsbL-1000_RLatLon0.09_PT072H.grib2 2026-05-02 15:00 802K
20260502T12Z_MSC_RDPS_WindV_IsbL-1015_RLatLon0.09_PT072H.grib2 2026-05-02 15:00 796K